Regional Weather Roundup
Issued by NWS Newport/Morehead, NC

Current Version | Previous Version | Text Only | Print | Product List | Glossary On
Versions: 1 2 3 4 5 6 7 8 9 10 11 12 13 14 15 16 17 18 19 20 21 22 23 24 25 26 27 28 29 30 31 32 33 34 35 36 37 38 39 40 41 42 43 44 45 46 47 48 49 50
000
ASUS42 KMHX 280610
RWRMHX
WEATHER ROUNDUP FOR EASTERN NORTH CAROLINA
NATIONAL WEATHER SERVICE NEWPORT/MOREHEAD CITY NC
100 AM EST WED JAN 28 2015

NOTE: "FAIR" INDICATES FEW OR NO CLOUDS BELOW 12,000 FEET
WITH NO SIGNIFICANT WEATHER AND/OR OBSTRUCTIONS TO VISIBILITY

NCZ015>017-031-032-045>047-102-103-280700-
NORTH COAST

CITY           SKY/WX    TMP DP  RH WIND       PRES   REMARKS
EDENTON        CLOUDY    34  30  85 NW8       29.96R
ELIZABETH CITY CLOUDY    34  23  64 NW15      29.95R
KITTY HAWK     CLOUDY    34  25  70 NW9       29.92R
MANTEO         CLOUDY    36  25  64 N12G21    29.94R

$$

NCZ045>047-081-094-103-104-280700-
CENTRAL COAST

CITY           SKY/WX    TMP DP  RH WIND       PRES   REMARKS
FRISCO         CLOUDY    36  29  75 VRB6      29.92R
SWANQUARTER    NOT AVBL

$$

NCZ095-097-098-100-101-280700-
SOUTHERN COAST

CITY           SKY/WX    TMP DP  RH WIND       PRES   REMARKS
BEAUFORT       CLEAR     35  30  82 NW10      29.96R
CEDAR ISLAND   NOT AVBL
JACKSONVILLE   FAIR      29  25  85 NW7       29.97R
PINEY ISLAND     N/A    N/A N/A N/A MISG      29.95R
WILMINGTON     CLEAR     31  23  72 NW9       29.98R


$$

NCZ011>013-027>030-043-044-078>080-089-090>093-098-280700-
COASTAL PLAIN

CITY           SKY/WX    TMP DP  RH WIND       PRES   REMARKS
AHOSKIE        CLOUDY    33  26  75 NW3       29.98R
CLINTON        CLEAR     33  16  48 NW3       30.01R
ELIZABETHTOWN  CLEAR     34  13  41 NW3       30.00R
GOLDSBORO      CLEAR     31  28  90 NW1       29.98R
GREENVILLE     CLEAR     32  27  80 NW3       30.00R
HAVELOCK       CLEAR     32  26  78 W6        29.98R
KENANSVILLE    CLEAR     32  22  66 NW5       30.00R
KINSTON        CLEAR     29  27  93 NW3       30.00R
NEW BERN       CLEAR     30  26  85 W3        29.98R
RICHLANDS      CLEAR     28  21  74 NW5       29.98R
ROCKY MOUNT    CLEAR     29  22  75 NW6       30.00R
WASHINGTON     CLOUDY    33  28  83 NW5       29.98R
WHITEVILLE     PTCLDY    35  17  49 CALM      30.00R

$$

AMZ130-135-150-152-154-156-158-170-250-252-270-ANZ085-086-088-633-658-670-280700-
MARINE OBSERVATIONS

STATION/POSITION TIME  TEMP    WIND        PRES    WAVE   SWELL
                       AIR SEA DIR/SP/G            HT/PER HT/PER
                 (UTC) (F)     (DEG/KT/KT) (MB)    (FT/S) (FT/S)
CHESAPEAKE LIGHT 0500   34     330/ 23/ 24 1013.4
64 E VA BEACH    0600   38 52  350/ 23/ 29 1010.9   11/12  10/12
DUCK             0600   35 42  330/ 18/ 22 1012.4
2 E DUCK         0600      43                N/A     7/13   5/13
10 NE DUCK       0500      45                N/A     9/13   5/13
OREGON INLET     0600   35 44  320/ 10/ 15 1013.1
13E OREGON INLT  0600      46                N/A     9/13   7/13
HATTERAS CG      0600   38 47  350/ 19/ 21 1013.5
DIAMOND BUOY     0600   40 58  340/ 19/ 23 1012.4    8/14   7/14
17 S OCRACOKE    NOT AVBL
CAPE LOOKOUT     0500   38     330/ 10/ 12 1013.9
BEAUFORT LAB     0600   35 48  340/  4/  8 1013.4
27 SE WRIGHTSVLE NOT AVBL
5 SE WRIGHTSVLE  0500   43 53  290/ 14/ 16 1014.3
225 S CAPE HAT   0514   55 71  310/ 19/ 29 1011.3   13/ 9   8/14
41 SE CHARLESTON 0600   51 67  320/ 16/ 21 1015.0    3/ 4   2/ 9

$$



USA.gov is the U.S. government's official web portal to all federal, state and local government web resources and services.